Tracking 19564 objects as of 19-Mar-2019
HD Live streaming from Space Station
objects crossing your sky now

SL-3 R/B

Track SL-3 R/B now!
10-day predictions
SL-3 R/B is classified as:


NORAD ID: 14208
Int'l Code: 1983-075B
Perigee: 512.6 km
Apogee: 568.8 km
Inclination: 97.4 °
Period: 95.3 minutes
Semi major axis: 6911 km
RCS: 6.5943 m2 (large)
Launch date: July 24, 1983
Source: Commonwealth of Independent States (former USSR) (CIS)
Launch site: TYURATAM MISSILE AND SPACE COMPLEX (TTMTR)

Note: This is a ROCKET BODY
aabbcc
Your satellite tracking list
Your tracking list is empty




NASA's NSSDC Master Catalog

Two Line Element Set (TLE):
1 14208U 83075B   19077.89858363  .00000172  00000-0  13914-4 0  9994
2 14208  97.3598  72.7880 0040635  83.5994 276.9861 15.10871073944083
Source of the keplerian elements: AFSPC